Flag for Germany Weather past 2 weeks in Karlsruhe, Baden-Württemberg, Germany

Now
52 °F

Scattered showers. Passing clouds.


Feels Like: 49 °F
Forecast: 39 / 47 °F
Wind: 9 mph from West

Location: Karlsruhe - Baden Wurttemberg

Current Time: Oct 21, 2014 at 10:09:54 PM

Latest Report: Oct 21, 2014 at 9:20 PM


Visibility: N/A

Pressure: 29.86 "Hg

Humidity: 67%

Dew point: 41 °F

Location of KarlsruheLocation

Historic Weather in Karlsruhe — Graph

°F

Karlsruhe temperature yesterday

Maximum temperature yesterday: 66 °F (at 12:50 PM)
Minimum temperature yesterday: 59 °F (at 10:50 PM)
Average temperature yesterday: 63 °F

Past Weeks' High & Low Weather Summary

 TemperatureHumidityPressure
High75 °F (Oct 19, 2:50 PM)100% (Oct 12, 5:50 AM)30.18 "Hg (Oct 12, 5:50 AM)
Low45 °F (Oct 18, 6:50 AM)50% (Oct 19, 3:50 PM)29.65 "Hg (Oct 21, 5:20 PM)
Average60 °F83%29.91 "Hg
* Reported Oct 6 8:20 PM — Oct 21 8:50 PM, Karlsruhe, Weather by CustomWeather, © 2014

Note: Actual official high and low records may vary slightly from our data, if they occured in-between our weather recording intervals... More about our weather records

Advertising

Karlsruhe weather history for previous 24 hours

 ConditionsComfort  
Time TempWeatherWind HumidityBarometerVisibility
8:50 PM
Oct 21
52 °FPassing clouds.10 mph72%29.83 "HgN/A
8:20 PM52 °FScattered showers. Passing clouds.14 mph77%29.83 "HgN/A
7:50 PM52 °FSprinkles. Passing clouds.10 mph77%29.80 "Hg5 mi
7:20 PM52 °FSprinkles. Broken clouds.10 mph77%29.77 "Hg5 mi
6:56 PM52 °FThundershowers. Broken clouds.15 mph77%29.74 "Hg5 mi
6:50 PM52 °FThundershowers. Broken clouds.20 mph77%29.74 "Hg3 mi
6:20 PM61 °FSprinkles. Partly sunny.17 mph68%29.65 "HgN/A
5:50 PM59 °FSprinkles. Broken clouds.14 mph72%29.65 "HgN/A
5:20 PM59 °FRain showers. Broken clouds.13 mph77%29.65 "HgN/A
4:50 PM61 °FSprinkles. Broken clouds.16 mph63%29.68 "HgN/A
4:20 PM61 °FSprinkles. Broken clouds.14 mph63%29.74 "HgN/A
3:50 PM63 °FScattered showers. Broken clouds.17 mph56%29.74 "HgN/A
3:20 PM63 °FSprinkles. Broken clouds.16 mph56%29.77 "HgN/A
2:50 PM63 °FBroken clouds.21 mph56%29.77 "HgN/A
2:20 PM63 °FBroken clouds.20 mph56%29.83 "HgN/A
1:50 PM63 °FBroken clouds.16 mph56%29.83 "HgN/A
1:20 PM63 °FBroken clouds.16 mph56%29.83 "HgN/A
12:50 PM64 °FBroken clouds.17 mph52%29.86 "HgN/A
12:20 PM61 °FBroken clouds.18 mph59%29.89 "HgN/A
11:50 AM61 °FScattered showers. Partly sunny.21 mph59%29.92 "HgN/A
11:20 AM63 °FScattered clouds.17 mph59%29.92 "HgN/A
10:50 AM61 °FScattered clouds.15 mph72%29.89 "HgN/A
10:20 AM59 °FScattered clouds.15 mph77%29.92 "HgN/A
9:50 AM59 °FPartly sunny.10 mph82%29.92 "HgN/A
9:20 AM57 °FPartly sunny.10 mph88%29.92 "HgN/A
8:50 AM55 °FScattered showers. Passing clouds.8 mph88%29.95 "HgN/A
8:20 AM54 °FPassing clouds.5 mph94%29.95 "HgN/A
7:50 AM52 °FPassing clouds.5 mph94%29.95 "HgN/A
7:20 AM54 °FPassing clouds.5 mph94%29.95 "HgN/A
6:50 AM55 °FPassing clouds.5 mph88%29.95 "HgN/A
6:20 AM55 °FPartly cloudy.3 mph94%29.95 "HgN/A
5:50 AM55 °FPassing clouds.6 mph94%29.95 "HgN/A
4:50 AM57 °FPartly cloudy.6 mph88%29.98 "HgN/A
4:20 AM55 °FPartly cloudy.5 mph88%29.98 "HgN/A
11:20 PM
Oct 20
59 °FPartly cloudy.5 mph82%30.04 "HgN/A
10:50 PM59 °FSprinkles. Partly cloudy.6 mph82%30.04 "HgN/A
10:20 PM61 °FSprinkles. Passing clouds.3 mph77%30.04 "HgN/A
Weather by CustomWeather, © 2014

See weather overviewHow to use our weather pages